Theta_e
309 309 308 307 307 305 303 298 294 303 302 293 289 288 289 292 292 295 292 292 290 288 288 286 286 285 288 294 293 288 292 288 282 284 291 293 291 288 289 284 283 285 284 286
309 309 308 307 308 306 301 293 294 303 300 288 288 289 289 290 290 291 291 290 291 292 288 284 288 288 293 294 292 290 292 286 280 282 288 291 287 289 290 290 289 285 282 286
310 309 308 307 307 306 302 295 290 295 295 292 288 286 287 286 293 292 293 291 292 290 286 290 287 287 291 294 293 296 295 288 284 280 283 287 285 288 289 288 285 285 286 288
310 309 308 307 307 306 299 292 290 291 286 288 287 288 288 286 287 292 293 290 289 289 285 285 286 289 290 293 294 294 292 284 286 287 288 288 287 286 288 286 288 284 288 289
309 309 307 308 307 306 296 289 288 292 288 288 288 287 287 287 289 288 287 288 290 290 286 287 285 288 288 288 292 291 292 285 287 283 287 287 284 287 288 288 288 288 289 289
307 305 306 307 307 305 296 294 293 292 288 287 286 287 287 287 288 290 293 291 289 288 291 293 294 294 293 291 289 288 288 287 284 280 285 285 281 286 287 288 290 290 286 291
305 305 305 306 306 306 300 297 295 288 286 286 286 288 288 287 289 287 290 292 290 294 297 297 296 294 293 291 289 291 288 287 286 281 283 274 286 293 293 291 294 296 294 294
305 305 305 305 306 307 300 299 295 290 285 288 288 288 288 289 290 289 291 294 296 298 294 289 287 288 290 290 289 290 290 287 283 279 279 283 286 291 290 289 289 297 294 296
304 304 304 304 306 306 304 300 300 293 287 288 290 288 288 285 287 288 292 296 300 296 291 287 281 282 284 284 287 288 289 289 284 282 277 276 288 293 294 294 286 299 299 297
303 303 303 304 305 307 305 302 301 295 288 291 291 287 287 290 289 286 290 292 293 295 287 282 282 282 287 283 283 285 285 285 281 280 279 284 291 293 294 284 290 299 302 304
302 302 303 303 303 305 306 303 302 297 291 293 294 295 290 290 289 285 292 290 292 290 286 283 284 284 286 285 287 285 284 284 283 283 280 279 290 289 287 293 295 296 298 306
301 302 302 303 304 304 305 299 303 303 294 293 299 299 300 298 296 291 292 292 292 292 289 288 287 285 287 286 283 291 284 285 284 285 285 291 292 287 291 293 291 294 298 307
300 301 301 302 303 304 304 301 303 299 293 293 294 294 299 299 299 301 290 294 296 293 296 291 289 285 289 285 286 288 289 290 284 285 290 291 295 296 300 303 301 304 306 307
299 300 300 301 301 302 303 300 304 299 295 287 292 299 297 302 300 299 299 297 297 296 295 290 289 288 293 289 290 290 293 293 289 288 292 294 296 297 300 301 303 303 306 305
299 300 301 301 302 303 303 303 302 302 294 288 290 297 299 300 299 297 297 295 293 294 291 290 289 293 291 294 294 291 295 291 288 287 294 294 295 300 301 300 301 302 301 301
301 301 302 302 302 303 300 295 301 302 300 291 286 297 297 300 301 297 295 294 294 295 292 292 295 296 294 290 288 295 298 298 298 296 301 300 299 300 303 300 301 302 300 302
303 302 302 303 303 302 296 295 300 303 301 291 288 291 297 299 300 299 298 298 297 296 296 294 295 295 296 293 290 296 298 298 299 302 301 296 297 296 299 301 301 302 301 301
302 302 302 303 305 302 298 302 304 302 296 294 288 290 293 301 298 296 300 296 296 297 296 297 294 297 296 291 296 297 299 299 299 300 301 300 299 299 298 301 301 299 298 299
301 300 304 303 301 297 300 305 307 302 297 290 290 288 287 298 300 300 298 299 292 298 294 294 294 293 291 295 296 296 298 297 297 299 300 300 298 297 297 298 298 298 297 298
298 297 297 297 299 302 303 300 296 294 295 294 291 294 290 295 295 295 295 295 293 290 294 297 293 294 297 298 300 300 300 300 300 297 296 297 296 295 295 296 297 297 297 298
292 287 290 295 298 299 298 292 292 291 288 293 294 294 291 297 291 291 297 293 292 288 292 293 292 291 296 300 301 301 302 302 301 301 300 299 297 295 295 295 296 297 297 296
293 292 295 294 294 292 289 289 291 289 287 294 292 292 292 295 296 294 292 291 291 286 293 291 286 295 298 300 300 301 303 303 301 302 300 299 298 297 296 295 295 296 295 297
295 291 289 289 290 284 283 281 287 289 294 296 295 292 294 294 295 293 291 288 288 293 289 287 293 297 299 301 301 301 303 303 302 301 301 300 299 298 296 295 295 295 295 295
287 287 282 285 283 285 287 289 290 295 294 294 295 294 292 295 291 292 288 291 291 286 284 286 294 298 300 301 301 301 301 303 302 301 301 300 299 297 296 295 296 295 293 293
284 286 280 284 289 291 292 294 294 295 297 296 291 294 294 292 290 289 289 287 285 287 288 293 298 299 301 301 302 302 303 303 303 302 301 300 299 297 296 296 296 295 294 293
285 284 282 287 287 289 291 291 291 295 295 294 295 294 290 289 291 288 288 287 285 291 293 297 298 299 302 302 303 303 304 304 304 303 302 301 300 298 296 296 296 295 294 293
285 284 289 287 287 287 290 292 291 294 291 290 294 288 288 291 287 287 289 288 293 295 296 298 298 300 302 304 304 303 304 303 303 304 302 302 301 300 297 295 295 295 295 294
Wind_Speed
18 20 21 25 22 23 7 4 1 5 3 1 1 1 5 7 6 1 6 6 10 11 11 8 8 7 6 8 8 10 4 4 6 10 8 7 7 4 10 8 17 10 9 5
16 17 19 21 21 18 4 5 4 2 3 2 3 4 6 4 5 5 4 5 4 6 6 8 9 9 7 11 9 4 3 1 6 7 5 4 1 3 2 6 6 11 12 7
16 14 18 19 21 17 2 3 4 3 4 1 2 6 4 6 5 10 4 7 9 5 6 9 7 15 10 8 11 11 5 6 10 10 8 8 10 10 8 5 9 12 15 23
16 14 16 18 19 17 1 3 3 2 4 2 8 4 5 9 7 2 7 4 7 7 7 16 18 13 14 12 9 8 5 10 11 14 15 15 17 20 17 14 13 13 13 25
17 16 16 17 17 17 2 3 3 1 5 7 6 3 3 7 5 5 10 12 14 15 15 18 23 21 14 8 4 9 7 7 10 12 16 17 20 20 20 19 18 18 20 30
16 17 16 16 15 8 1 1 1 2 3 4 4 3 4 9 15 11 11 14 16 16 18 16 20 20 22 18 10 6 4 4 6 11 8 9 14 22 24 19 17 16 21 24
16 17 16 16 16 8 1 1 1 2 4 3 7 10 15 16 13 16 23 17 16 10 18 23 19 14 13 12 13 11 5 9 6 3 2 8 6 1 6 13 16 17 20 24
15 16 17 16 16 12 2 2 2 2 5 6 13 7 12 14 13 10 12 13 9 11 10 7 8 3 2 3 2 12 12 5 3 4 7 12 16 3 7 4 10 10 18 22
15 16 16 16 17 13 2 3 3 2 3 4 6 13 8 6 8 8 7 11 7 5 3 4 5 4 4 5 7 3 9 12 5 5 6 5 4 6 6 8 11 13 18 15
17 16 16 16 17 16 5 3 5 2 4 6 4 4 4 3 4 6 11 8 4 3 6 4 3 4 5 5 7 5 2 3 11 9 6 8 3 8 7 5 2 14 7 6
17 17 16 15 15 16 6 3 6 3 4 9 10 11 6 4 4 4 7 7 1 3 5 4 4 4 3 4 4 6 3 4 2 6 6 7 7 9 6 6 17 12 15 9
17 17 17 16 15 14 12 3 3 5 4 7 14 20 22 24 20 6 3 5 5 1 3 0 3 3 3 5 3 1 2 2 3 3 4 6 11 11 19 20 18 20 14 10
18 18 17 17 16 16 10 3 2 2 3 7 8 7 3 5 14 15 6 4 3 2 1 1 2 5 2 4 2 3 4 5 3 4 3 12 12 16 16 3 9 1 5 4
20 20 19 18 15 15 12 4 1 2 2 4 6 3 9 7 9 19 21 4 1 0 1 3 3 4 3 3 4 5 4 6 5 5 8 11 6 13 14 13 15 15 11 14
21 20 20 18 16 15 9 7 7 7 4 4 7 17 5 5 9 15 16 14 7 4 2 3 4 3 3 3 3 3 6 4 3 3 10 6 9 13 14 14 16 14 14 16
20 19 21 20 17 13 4 3 1 3 5 2 5 4 3 2 4 8 10 9 7 3 2 3 3 3 3 3 2 4 6 3 5 5 10 6 11 9 12 11 12 13 15 11
21 24 23 19 14 4 4 2 2 3 3 2 5 5 2 1 3 3 4 7 4 4 2 3 3 2 3 2 3 6 6 3 5 8 4 7 10 9 11 13 13 11 11 16
25 26 21 15 9 6 4 6 11 3 2 3 3 5 4 3 1 2 4 3 3 4 3 1 3 2 2 4 3 4 5 2 8 7 6 6 8 12 13 12 11 11 13 12
27 21 7 2 1 2 2 8 5 5 2 3 3 3 3 2 1 1 3 2 3 1 3 3 2 2 5 3 2 3 5 3 3 5 8 9 12 13 14 13 12 12 13 13
18 4 2 2 2 13 9 5 3 3 3 4 4 1 4 1 1 1 1 1 2 3 2 2 3 4 4 5 4 1 3 1 4 7 9 8 10 10 11 12 11 11 11 10
6 6 3 6 12 2 2 3 3 4 3 4 3 6 6 2 4 2 1 1 1 3 2 3 2 3 2 4 5 2 5 3 6 6 3 6 6 8 10 11 12 10 10 11
8 9 7 4 3 2 3 3 3 5 4 4 2 2 5 3 3 3 2 2 1 3 2 1 3 3 1 5 7 7 9 7 3 5 7 7 8 9 10 10 11 11 10 10
2 2 4 3 2 4 5 4 4 4 2 2 1 2 3 3 3 2 2 3 3 2 2 3 4 1 4 5 5 8 7 9 5 5 6 8 8 11 11 11 12 12 11 10
2 3 5 5 5 5 4 2 2 3 4 5 6 3 4 2 4 1 3 1 1 1 3 4 2 4 7 7 6 9 8 8 9 7 6 6 9 9 10 11 10 9 10 10
3 3 6 6 3 3 4 4 4 5 5 3 5 4 3 2 2 3 2 3 3 4 4 3 1 1 7 8 7 7 8 8 8 9 7 6 6 8 9 9 9 11 11 12
3 5 5 4 5 5 2 2 4 4 4 4 3 3 2 3 1 3 5 3 4 3 3 4 2 3 6 7 7 8 7 8 7 9 9 7 6 7 7 7 9 10 11 13
4 3 3 6 7 8 6 4 7 3 4 3 2 3 3 1 2 3 2 3 3 4 4 2 5 3 6 6 6 7 8 8 7 9 11 9 7 7 6 7 8 10 11 12
Wind_Direction
336 339 345 349 346 348 2 349 274 6 324 6 36 336 323 313 298 29 287 271 269 268 285 281 281 249 266 329 341 322 335 308 288 283 291 264 267 292 239 248 223 239 287 275
333 337 339 340 342 5 327 347 295 341 313 28 340 310 278 268 293 314 302 277 285 303 288 295 255 273 293 294 296 290 345 270 305 298 192 114 117 267 277 292 267 255 246 247
332 337 337 339 338 357 327 334 326 3 44 36 343 330 278 312 257 283 253 274 295 275 276 256 279 282 294 284 288 286 267 247 253 261 307 321 297 285 267 261 261 247 237 268
333 340 337 339 341 351 341 6 43 1 319 351 313 292 275 292 292 277 298 268 228 281 283 300 277 286 290 288 285 275 254 253 246 260 274 276 275 275 272 259 250 255 263 257
349 350 345 339 343 340 54 2 346 1 288 295 294 294 271 303 331 317 296 269 295 295 283 284 289 289 277 248 229 238 217 236 216 249 257 263 269 266 262 260 258 253 253 264
355 348 340 337 336 347 306 141 149 254 278 299 293 286 313 305 318 288 248 293 300 294 291 299 286 279 273 257 251 226 232 203 213 255 267 280 270 249 245 254 250 243 243 255
345 340 334 329 330 341 256 182 142 230 288 260 292 293 299 297 302 275 289 289 283 290 314 298 280 263 257 247 250 211 210 202 230 279 310 250 278 209 282 265 267 262 237 245
332 328 325 326 325 327 221 170 180 220 264 287 292 306 308 303 303 277 279 286 277 324 307 307 327 333 213 220 201 216 204 207 236 237 224 279 284 42 336 355 287 267 224 238
326 323 320 324 320 319 288 212 168 171 281 247 262 308 292 298 324 306 280 316 338 340 334 320 326 330 309 328 332 169 219 210 216 211 246 261 43 119 15 325 271 225 226 238
323 324 325 322 323 324 302 262 196 178 255 260 216 258 305 282 278 283 296 338 315 326 360 338 335 308 328 303 323 333 160 179 223 231 262 271 66 343 326 246 28 326 313 269
325 324 325 322 316 318 326 268 184 210 246 275 250 256 222 234 210 249 322 315 133 297 11 351 336 295 324 287 280 310 301 303 219 217 235 265 29 327 240 335 311 304 299 269
325 322 321 319 317 313 320 234 180 216 249 278 298 272 261 258 250 251 259 293 301 248 290 189 291 284 287 293 301 46 295 272 292 256 296 299 290 248 252 258 263 279 281 273
324 322 319 316 313 312 304 259 230 221 257 272 260 266 275 231 226 209 219 226 259 205 173 273 284 272 259 292 330 287 239 202 244 299 261 288 296 326 329 45 208 282 40 26
322 318 316 312 307 306 307 273 263 253 310 280 279 319 271 266 199 193 210 226 70 103 186 227 248 263 197 286 285 286 278 306 278 253 277 315 303 338 353 7 43 28 39 35
321 316 312 308 304 300 295 262 246 212 218 286 296 301 254 235 199 201 213 225 245 274 230 221 237 248 266 225 282 279 341 331 321 332 304 299 323 340 349 6 28 17 28 21
318 316 311 306 300 299 290 285 134 217 179 271 289 315 267 296 162 191 197 208 225 250 245 241 251 255 241 290 271 253 324 31 264 282 315 347 345 354 350 4 10 10 24 15
321 314 306 296 279 240 220 292 23 148 122 236 276 279 247 305 143 145 156 188 226 235 246 229 259 262 225 260 271 349 351 6 344 8 359 23 8 352 359 357 3 7 12 24
319 314 311 301 254 195 244 241 226 179 211 229 265 275 291 187 210 203 162 199 209 208 271 236 244 248 240 256 262 317 0 9 24 31 62 50 10 19 12 16 8 27 33 6
321 319 313 104 146 174 226 331 244 151 272 270 231 263 288 345 249 212 195 224 233 192 244 238 206 216 231 240 165 42 18 353 60 50 42 34 24 16 20 22 17 25 32 18
330 346 281 186 94 316 299 169 179 160 215 225 251 221 261 290 318 271 261 194 277 253 215 220 233 260 275 238 183 87 30 12 89 44 21 28 26 24 26 30 30 29 25 18
356 358 334 327 312 276 219 242 223 174 237 225 236 226 243 192 219 249 247 278 261 270 79 282 305 267 199 168 150 124 123 93 68 84 49 70 41 30 33 32 41 36 38 25
289 286 296 278 277 262 252 226 225 194 241 187 214 246 212 236 220 225 173 259 238 255 356 250 261 256 214 164 138 130 125 120 78 58 92 66 38 26 37 39 39 46 38 40
296 206 239 234 207 236 217 226 207 217 197 134 56 316 259 179 221 225 202 220 234 311 250 245 244 147 184 182 148 126 123 121 114 77 85 83 59 37 30 42 45 41 42 32
287 274 263 216 213 232 221 255 354 35 328 304 306 253 283 191 174 174 224 142 226 241 249 244 214 213 177 175 163 144 152 142 129 128 123 84 61 50 37 41 52 61 63 54
257 252 243 240 257 275 288 302 320 291 305 328 312 248 221 200 166 188 199 182 247 230 240 247 206 198 167 175 170 157 155 145 148 134 132 115 82 70 57 47 51 58 66 66
239 237 267 287 287 293 295 292 286 333 318 296 221 264 256 231 241 184 220 188 213 261 240 278 321 160 166 183 176 176 161 153 151 137 141 139 115 88 80 64 59 58 59 65
263 274 295 285 283 279 293 308 315 331 301 286 272 224 244 55 237 224 221 197 235 266 300 327 301 310 185 181 180 169 166 149 151 140 139 140 131 115 93 75 64 64 65 68